PAL102 RPLL-KLAX

Flight info

Callsign PAL102
Flight time N/A
Altitude 29000
Route JOM2R JOM A590 AVLAS/N0509F310 A590 BUBDO Y527 DOMBI Y57 POROT Y809 AVBET OTR11 LEPKI/N0501F330 DCT 38N160E 41N170E 42N180E 44N170W/N0494F350 46N160W 46N150W 43N140W 41N130W/N0489F370 DCT TRYSH DCT ENI DCT OAK DCT BURGL IRNMN2
Aircraft B77W/H-SDE1E2E3FGHIJ2J3J4J5M1RWXY/LB1D1

Departure

Time 2026-05-01 13:42
Airport Ninoy Aquino International Airport (RPLL)

Arrival

Time N/A
Airport Los Angeles International Airport (KLAX)
Time Latitude Longitude Altitude Speed Heading
2026-05-01 12:43 14.50503 121.00719 70 ft 0 kts 277°
2026-05-01 13:32 14.50501 121.00734 66 ft 4 kts 279°
2026-05-01 13:33 14.50485 121.00816 63 ft 4 kts 276°
2026-05-01 13:33 14.50487 121.00843 63 ft 0 kts 242°
2026-05-01 13:36 14.50486 121.00841 63 ft 2 kts 238°
2026-05-01 13:36 14.50457 121.00826 66 ft 7 kts 198°
2026-05-01 13:36 14.50375 121.00787 65 ft 7 kts 227°
2026-05-01 13:37 14.50349 121.00746 65 ft 7 kts 238°
2026-05-01 13:37 14.50324 121.00700 64 ft 7 kts 241°
2026-05-01 13:37 14.50298 121.00652 64 ft 8 kts 240°
2026-05-01 13:37 14.50270 121.00602 64 ft 8 kts 240°
2026-05-01 13:38 14.50208 121.00492 62 ft 9 kts 240°
2026-05-01 13:38 14.50176 121.00435 67 ft 9 kts 240°
2026-05-01 13:38 14.50144 121.00377 64 ft 9 kts 240°
2026-05-01 13:39 14.50112 121.00319 71 ft 9 kts 240°
2026-05-01 13:39 14.50080 121.00261 64 ft 9 kts 240°
2026-05-01 13:39 14.50048 121.00203 71 ft 9 kts 240°
2026-05-01 13:39 14.50016 121.00146 64 ft 9 kts 240°
2026-05-01 13:40 14.49983 121.00088 66 ft 9 kts 240°
2026-05-01 13:40 14.49951 121.00031 63 ft 9 kts 240°
2026-05-01 13:40 14.49915 120.99975 66 ft 9 kts 221°
2026-05-01 13:40 14.49855 120.99977 71 ft 9 kts 152°
2026-05-01 13:41 14.49804 121.00016 71 ft 9 kts 118°
2026-05-01 13:41 14.49812 121.00054 63 ft 0 kts 60°
2026-05-01 13:41 14.49818 121.00066 63 ft 14 kts 60°
2026-05-01 13:41 14.50006 121.00405 63 ft 96 kts 60°
2026-05-01 13:42 14.50473 121.01243 66 ft 172 kts 60°
2026-05-01 13:42 14.51178 121.02509 238 ft 221 kts 61°
2026-05-01 13:42 14.51931 121.03889 1212 ft 221 kts 62°
2026-05-01 13:42 14.52672 121.05266 2381 ft 215 kts 62°
2026-05-01 13:43 14.53405 121.06603 2930 ft 218 kts 62°
2026-05-01 13:43 14.54148 121.08002 3172 ft 227 kts 64°
2026-05-01 13:43 14.54870 121.09476 3467 ft 232 kts 69°
2026-05-01 13:43 14.55575 121.10946 3967 ft 227 kts 64°
2026-05-01 13:44 14.56310 121.12417 4283 ft 239 kts 64°
2026-05-01 13:44 14.57084 121.13974 4622 ft 248 kts 64°
2026-05-01 13:44 14.57908 121.15584 4877 ft 261 kts 64°
2026-05-01 13:44 14.58465 121.17374 5125 ft 265 kts 84°
2026-05-01 13:45 14.58606 121.19286 5593 ft 269 kts 87°
2026-05-01 13:45 14.58712 121.21221 6166 ft 270 kts 87°
2026-05-01 13:45 14.58813 121.23164 6705 ft 272 kts 87°
2026-05-01 13:45 14.58910 121.25113 7263 ft 271 kts 87°
2026-05-01 13:46 14.59077 121.27052 7807 ft 273 kts 84°
2026-05-01 13:46 14.59299 121.29009 8295 ft 276 kts 83°
2026-05-01 13:46 14.59531 121.30986 8818 ft 279 kts 83°
2026-05-01 13:46 14.59762 121.32975 9382 ft 279 kts 83°
2026-05-01 13:47 14.59991 121.34977 9877 ft 282 kts 83°
2026-05-01 13:47 14.60218 121.36977 10313 ft 287 kts 83°
2026-05-01 13:47 14.60458 121.39109 10433 ft 304 kts 83°
2026-05-01 13:47 14.60696 121.41296 10593 ft 319 kts 83°
2026-05-01 13:48 14.60955 121.43633 10709 ft 336 kts 83°
2026-05-01 13:48 14.61226 121.46092 10850 ft 353 kts 83°
2026-05-01 13:48 14.61508 121.48660 11119 ft 365 kts 83°
2026-05-01 13:48 14.61793 121.51294 11492 ft 373 kts 83°
2026-05-01 13:49 14.62082 121.53964 12067 ft 374 kts 83°
2026-05-01 13:49 14.62372 121.56642 12703 ft 375 kts 83°
2026-05-01 13:49 14.62662 121.59330 13248 ft 379 kts 84°
2026-05-01 13:49 14.62956 121.62049 13797 ft 382 kts 84°
2026-05-01 13:50 14.63249 121.64779 14291 ft 384 kts 84°
2026-05-01 13:50 14.63548 121.67551 14599 ft 392 kts 84°
2026-05-01 13:50 14.63850 121.70365 15008 ft 396 kts 84°
2026-05-01 13:50 14.64154 121.73198 15493 ft 398 kts 84°
2026-05-01 13:51 14.64460 121.76045 15968 ft 400 kts 84°
2026-05-01 13:51 14.64768 121.78911 16408 ft 403 kts 84°
2026-05-01 13:51 14.65077 121.81800 16838 ft 406 kts 84°
2026-05-01 13:51 14.65388 121.84709 17284 ft 409 kts 84°
2026-05-01 13:52 14.65701 121.87640 17727 ft 412 kts 84°
2026-05-01 13:52 14.66016 121.90591 18141 ft 415 kts 84°
2026-05-01 13:52 14.66333 121.93565 18509 ft 418 kts 84°
2026-05-01 13:52 14.66652 121.96558 18860 ft 421 kts 84°
2026-05-01 13:53 14.66973 121.99578 19212 ft 424 kts 84°
2026-05-01 13:53 14.67606 122.05538 19892 ft 430 kts 84°
2026-05-01 13:53 14.67932 122.08623 20247 ft 433 kts 84°
2026-05-01 13:54 14.68259 122.11712 20646 ft 434 kts 84°
2026-05-01 13:54 14.68589 122.14828 20942 ft 438 kts 84°
2026-05-01 13:54 14.68919 122.17962 21325 ft 440 kts 84°
2026-05-01 13:54 14.69252 122.21117 21593 ft 445 kts 84°
2026-05-01 13:55 14.69587 122.24299 21946 ft 446 kts 84°
2026-05-01 13:55 14.69923 122.27491 22267 ft 449 kts 84°
2026-05-01 13:55 14.70509 122.30659 22372 ft 453 kts 70°
2026-05-01 13:55 14.71953 122.33558 22639 ft 457 kts 54°
2026-05-01 13:56 14.74088 122.35990 22971 ft 458 kts 39°
2026-05-01 13:56 14.76629 122.37976 23229 ft 460 kts 37°
2026-05-01 13:56 14.79234 122.39931 23459 ft 465 kts 36°
2026-05-01 13:56 14.81858 122.41894 23726 ft 467 kts 36°
2026-05-01 13:57 14.84496 122.43883 23891 ft 472 kts 36°
2026-05-01 13:57 14.86250 122.45217 24067 ft 473 kts 36°
2026-05-01 13:57 14.89790 122.47933 24418 ft 476 kts 37°
2026-05-01 13:57 14.92447 122.49987 24654 ft 478 kts 37°
2026-05-01 13:58 14.95111 122.52053 24901 ft 480 kts 37°
2026-05-01 13:58 14.97791 122.54134 25112 ft 483 kts 37°
2026-05-01 13:58 15.00476 122.56221 25409 ft 483 kts 36°
2026-05-01 13:58 15.03179 122.58322 25557 ft 488 kts 36°
2026-05-01 13:59 15.05899 122.60435 25817 ft 489 kts 37°
2026-05-01 13:59 15.08621 122.62551 26078 ft 491 kts 36°
2026-05-01 13:59 15.11363 122.64682 26266 ft 494 kts 36°
2026-05-01 13:59 15.14108 122.66816 26573 ft 494 kts 36°
2026-05-01 14:00 15.16869 122.68963 26704 ft 498 kts 36°
2026-05-01 14:00 15.19643 122.71120 26986 ft 498 kts 36°
2026-05-01 14:00 15.22417 122.73279 27211 ft 501 kts 36°
2026-05-01 14:00 15.25208 122.75452 27385 ft 503 kts 36°
2026-05-01 14:01 15.28008 122.77633 27632 ft 504 kts 36°
2026-05-01 14:01 15.30816 122.79820 27843 ft 506 kts 36°
2026-05-01 14:01 15.33633 122.82016 28059 ft 507 kts 36°
2026-05-01 14:01 15.36458 122.84218 28253 ft 510 kts 36°
2026-05-01 14:02 15.39300 122.86435 28390 ft 512 kts 36°
2026-05-01 14:02 15.42152 122.88660 28558 ft 514 kts 36°
2026-05-01 14:02 15.45012 122.90892 28791 ft 514 kts 36°
2026-05-01 14:02 15.47875 122.93127 28910 ft 517 kts 36°
2026-05-01 14:03 15.53636 122.97628 28972 ft 519 kts 36°
2026-05-01 14:03 15.59320 123.02072 28970 ft 517 kts 36°
2026-05-01 14:04 15.65060 123.06562 28974 ft 517 kts 36°
2026-05-01 14:04 15.69827 123.10292 28980 ft 517 kts 36°
2026-05-01 14:05 15.76547 123.15557 28981 ft 518 kts 36°
2026-05-01 14:05 15.82304 123.20072 28981 ft 519 kts 36°
2026-05-01 14:06 15.88030 123.24566 28977 ft 519 kts 36°
2026-05-01 14:06 15.93791 123.29091 28978 ft 519 kts 36°
2026-05-01 14:07 15.99551 123.33620 28977 ft 519 kts 36°
2026-05-01 14:08 16.08174 123.40404 28980 ft 518 kts 36°
2026-05-01 14:08 16.13922 123.44931 28979 ft 518 kts 36°
2026-05-01 14:09 16.19670 123.49460 28984 ft 518 kts 36°
2026-05-01 14:09 16.24448 123.53228 28981 ft 519 kts 36°
2026-05-01 14:10 16.30199 123.57767 28978 ft 519 kts 36°
2026-05-01 14:10 16.35956 123.62314 28982 ft 519 kts 36°
2026-05-01 14:11 16.41717 123.66867 28983 ft 520 kts 36°
2026-05-01 14:11 16.50362 123.73707 28981 ft 520 kts 36°
2026-05-01 14:12 16.56125 123.78271 28981 ft 520 kts 36°
2026-05-01 14:12 16.61885 123.82835 28980 ft 520 kts 36°
2026-05-01 14:13 16.67644 123.87403 28980 ft 520 kts 36°
2026-05-01 14:13 16.73364 123.91943 28981 ft 520 kts 36°
2026-05-01 14:14 16.79158 123.96546 28984 ft 520 kts 36°
2026-05-01 14:14 16.84806 124.01036 28983 ft 520 kts 36°
2026-05-01 14:15 16.90560 124.05614 28989 ft 520 kts 36°
2026-05-01 14:15 16.96315 124.10196 28988 ft 520 kts 36°
2026-05-01 14:16 17.02065 124.14778 28986 ft 520 kts 36°
2026-05-01 14:16 17.07819 124.19367 28986 ft 520 kts 36°
2026-05-01 14:17 17.13570 124.23957 28989 ft 520 kts 36°
2026-05-01 14:17 17.19322 124.28552 28986 ft 520 kts 36°
2026-05-01 14:18 17.25073 124.33150 28989 ft 520 kts 36°
2026-05-01 14:18 17.29890 124.37004 28990 ft 520 kts 36°
2026-05-01 14:19 17.36576 124.42357 28992 ft 521 kts 36°
2026-05-01 14:19 17.42330 124.46967 28994 ft 521 kts 36°
2026-05-01 14:20 17.50962 124.53888 28992 ft 521 kts 36°
2026-05-01 14:21 17.56709 124.58503 28993 ft 521 kts 36°
2026-05-01 14:21 17.62456 124.63122 28994 ft 520 kts 36°
2026-05-01 14:22 17.71073 124.70055 28991 ft 521 kts 36°
2026-05-01 14:22 17.76820 124.74683 28993 ft 521 kts 36°
2026-05-01 14:23 17.82565 124.79314 28995 ft 521 kts 36°
2026-05-01 14:23 17.88309 124.83947 28995 ft 521 kts 36°
2026-05-01 14:24 17.94050 124.88583 28996 ft 521 kts 36°
2026-05-01 14:24 17.99797 124.93226 28994 ft 521 kts 36°
2026-05-01 14:25 18.05536 124.97867 28995 ft 521 kts 36°
2026-05-01 14:25 18.11207 125.02457 28992 ft 521 kts 36°
2026-05-01 14:26 18.19816 125.09432 28996 ft 521 kts 36°
2026-05-01 14:27 18.25553 125.14086 28996 ft 521 kts 36°
2026-05-01 14:27 18.31291 125.18744 28994 ft 521 kts 36°
2026-05-01 14:28 18.39895 125.25736 28998 ft 521 kts 36°
2026-05-01 14:28 18.45591 125.30371 28997 ft 521 kts 36°
2026-05-01 14:29 18.51323 125.35038 28997 ft 521 kts 36°
2026-05-01 14:30 18.62786 125.44384 29004 ft 521 kts 36°
2026-05-01 14:31 18.71385 125.51406 29004 ft 521 kts 36°
2026-05-01 14:31 18.77115 125.56090 29001 ft 521 kts 36°
2026-05-01 14:32 18.82848 125.60781 29003 ft 521 kts 36°
2026-05-01 14:32 18.88579 125.65474 29007 ft 521 kts 36°
2026-05-01 14:33 18.94306 125.70169 29002 ft 521 kts 36°
2026-05-01 14:33 19.00028 125.74862 29002 ft 521 kts 36°
2026-05-01 14:34 19.05751 125.79562 29003 ft 521 kts 36°
2026-05-01 14:34 19.11470 125.84263 29012 ft 521 kts 36°
2026-05-01 14:35 19.17185 125.88963 29004 ft 520 kts 36°
2026-05-01 14:35 19.22897 125.93667 29008 ft 520 kts 36°
2026-05-01 14:36 19.28605 125.98370 29004 ft 520 kts 36°
2026-05-01 14:36 19.34235 126.03014 29014 ft 519 kts 36°
2026-05-01 14:37 19.39929 126.07715 29003 ft 519 kts 36°
2026-05-01 14:37 19.45575 126.12381 29005 ft 518 kts 36°
2026-05-01 14:38 19.51252 126.17076 29005 ft 517 kts 36°
2026-05-01 14:38 19.56921 126.21769 29017 ft 517 kts 36°
2026-05-01 14:39 19.62585 126.26462 29003 ft 516 kts 36°
2026-05-01 14:39 19.68244 126.31155 29010 ft 516 kts 36°
2026-05-01 14:40 19.73899 126.35850 29012 ft 516 kts 36°
2026-05-01 14:40 19.79553 126.40548 29017 ft 516 kts 36°
2026-05-01 14:41 19.85202 126.45246 29011 ft 516 kts 36°
2026-05-01 14:41 19.90850 126.49947 29012 ft 516 kts 36°
2026-05-01 14:42 19.96494 126.54651 29013 ft 515 kts 36°
2026-05-01 14:42 20.02128 126.59349 29023 ft 515 kts 36°
2026-05-01 14:43 20.07768 126.64057 29010 ft 515 kts 36°
2026-05-01 14:43 20.13405 126.68767 29016 ft 515 kts 36°
2026-05-01 14:44 20.19038 126.73479 29018 ft 515 kts 36°
2026-05-01 14:44 20.27484 126.80551 29014 ft 515 kts 36°
2026-05-01 14:45 20.35937 126.87639 29008 ft 516 kts 36°
2026-05-01 14:46 20.41571 126.92369 29024 ft 516 kts 36°
2026-05-01 14:46 20.50031 126.99480 29017 ft 516 kts 35°
2026-05-01 14:47 20.55563 127.04135 29020 ft 516 kts 35°
2026-05-01 14:48 20.64023 127.11264 29019 ft 517 kts 35°
2026-05-01 14:48 20.72480 127.18400 29024 ft 516 kts 36°
2026-05-01 14:49 20.83747 127.27925 29027 ft 516 kts 36°
2026-05-01 14:50 20.95003 127.37459 29025 ft 516 kts 35°
2026-05-01 14:51 21.03461 127.44582 29027 ft 516 kts 34°
2026-05-01 14:52 21.12036 127.51546 29038 ft 516 kts 34°
2026-05-01 14:53 21.20613 127.58529 29024 ft 517 kts 34°
2026-05-01 14:53 21.26326 127.63206 29028 ft 517 kts 34°
2026-05-01 14:54 21.32039 127.67891 29034 ft 517 kts 34°
2026-05-01 14:54 21.37757 127.72584 29033 ft 518 kts 34°
2026-05-01 14:55 21.43502 127.77301 29246 ft 522 kts 34°
2026-05-01 14:55 21.46377 127.79665 29606 ft 519 kts 34°
2026-05-01 14:55 21.49235 127.82017 29989 ft 517 kts 34°
2026-05-01 14:55 21.51124 127.83572 30201 ft 516 kts 34°
2026-05-01 14:56 21.53972 127.85917 30446 ft 516 kts 34°
2026-05-01 14:56 21.57748 127.89026 30707 ft 517 kts 33°
2026-05-01 14:56 21.60603 127.91378 30933 ft 517 kts 33°
2026-05-01 14:57 21.65393 127.95326 30991 ft 518 kts 33°
2026-05-01 14:57 21.73873 128.02328 31025 ft 516 kts 33°
2026-05-01 14:58 21.79519 128.06995 31042 ft 515 kts 33°
2026-05-01 14:58 21.85199 128.11695 31036 ft 515 kts 33°
2026-05-01 14:59 21.90880 128.16400 31036 ft 515 kts 33°
2026-05-01 14:59 21.96566 128.21114 31035 ft 516 kts 33°
2026-05-01 15:00 22.05097 128.28197 31044 ft 517 kts 33°
2026-05-01 15:01 22.10792 128.32932 31045 ft 517 kts 33°
2026-05-01 15:01 22.16490 128.37674 31039 ft 517 kts 33°
2026-05-01 15:02 22.22188 128.42421 31047 ft 517 kts 34°
2026-05-01 15:02 22.27881 128.47169 31037 ft 517 kts 34°
2026-05-01 15:03 22.33564 128.51914 31037 ft 516 kts 34°
2026-05-01 15:03 22.39240 128.56657 31065 ft 515 kts 34°
2026-05-01 15:04 22.44909 128.61400 31044 ft 515 kts 34°
2026-05-01 15:04 22.50564 128.66136 31036 ft 514 kts 34°
2026-05-01 15:05 22.56216 128.70875 31044 ft 514 kts 34°
2026-05-01 15:05 22.61866 128.75616 31063 ft 514 kts 34°
2026-05-01 15:06 22.67513 128.80361 31047 ft 514 kts 34°
2026-05-01 15:06 22.73158 128.85110 31045 ft 514 kts 34°
2026-05-01 15:07 22.78759 128.89826 31045 ft 513 kts 34°
2026-05-01 15:07 22.84400 128.94581 31045 ft 514 kts 34°
2026-05-01 15:08 22.90041 128.99342 31050 ft 514 kts 34°
2026-05-01 15:08 22.95617 129.04053 31051 ft 515 kts 34°
2026-05-01 15:09 23.01264 129.08823 31068 ft 515 kts 33°
2026-05-01 15:09 23.07072 129.13347 31054 ft 513 kts 31°
2026-05-01 15:10 23.12966 129.17720 31049 ft 513 kts 31°
2026-05-01 15:10 23.21773 129.24346 31065 ft 513 kts 31°
2026-05-01 15:11 23.30544 129.31044 31055 ft 513 kts 31°
2026-05-01 15:12 23.36383 129.35512 31054 ft 513 kts 31°
2026-05-01 15:12 23.45143 129.42216 31062 ft 513 kts 31°
2026-05-01 15:14 23.59739 129.53408 31064 ft 513 kts 31°
2026-05-01 15:14 23.68488 129.60133 31058 ft 513 kts 31°
2026-05-01 15:15 23.80147 129.69111 31066 ft 513 kts 31°
2026-05-01 15:16 23.91808 129.78112 31069 ft 513 kts 31°
2026-05-01 15:18 24.06305 129.89330 31067 ft 513 kts 31°
2026-05-01 15:19 24.17945 129.98360 31065 ft 513 kts 32°
2026-05-01 15:19 24.26593 130.05084 31059 ft 512 kts 31°
2026-05-01 15:20 24.35309 130.11871 31071 ft 512 kts 32°
2026-05-01 15:21 24.41153 130.16328 31077 ft 511 kts 30°
2026-05-01 15:21 24.47034 130.20725 31069 ft 511 kts 30°
2026-05-01 15:22 24.55836 130.27332 31067 ft 511 kts 31°
2026-05-01 15:22 24.61696 130.31756 31076 ft 511 kts 30°
2026-05-01 15:23 24.67555 130.36187 31069 ft 511 kts 31°
2026-05-01 15:23 24.73410 130.40619 31071 ft 511 kts 31°
2026-05-01 15:24 24.79261 130.45053 31073 ft 511 kts 31°
2026-05-01 15:24 24.85111 130.49490 31070 ft 511 kts 31°
2026-05-01 15:25 24.90957 130.53930 31076 ft 510 kts 31°
2026-05-01 15:25 24.96805 130.58376 31073 ft 511 kts 31°
2026-05-01 15:26 25.02646 130.62823 31075 ft 511 kts 31°
2026-05-01 15:26 25.08495 130.67281 31073 ft 511 kts 31°
2026-05-01 15:27 25.14343 130.71743 31079 ft 511 kts 31°
2026-05-01 15:28 25.23112 130.78444 31076 ft 511 kts 31°
2026-05-01 15:28 25.28958 130.82919 31079 ft 511 kts 31°
2026-05-01 15:29 25.37727 130.89640 31085 ft 511 kts 30°
2026-05-01 15:30 25.49419 130.98621 31079 ft 511 kts 31°
2026-05-01 15:31 25.66837 131.12041 31078 ft 512 kts 31°
2026-05-01 15:32 25.78522 131.21072 31083 ft 512 kts 31°
2026-05-01 15:34 25.95511 131.35469 31051 ft 513 kts 36°